Glenwood, MN

5:01 AM CST on December 09, 2016 (GMT -0600)
Glenwood Municipal

Weather History for KGHW - September, 2013

Change the Weather History Date:

Monday, September 23, 2013

  Actual Average Record
Temperature  
Mean Temperature 65 °F -  
Max Temperature 75 °F 65 °F 91 °F (2007)
Min Temperature 55 °F 39 °F 27 °F (1989)
Growing Degree Days 15 (Base 50)    
Moisture  
Dew Point 52 °F    
Average Humidity 65    
Maximum Humidity 88    
Minimum Humidity 41    
Precipitation  
Precipitation 0.00 in - - ()
Sea Level Pressure  
Sea Level Pressure 29.83 in    
Wind  
Wind Speed 15 mph (SE)    
Max Wind Speed 23 mph    
Max Gust Speed 31 mph    
Visibility 10 miles    
Events      
Averages and records for this station are not official NWS values.
T = Trace of Precipitation, MM = Missing Value Source: NWS Daily Summary

Daily Weather History Graph

Daily Weather History Graph

Search for Another Location

Airport or City:

Trip Planner

Search our weather history database for the weather conditions in past years. The results will help you decide how hot, cold, wet, or windy it might be!

Date:

Astronomy

Sep. 23, 2013 Rise Set
Actual Time 7:09 AM CDT 7:16 PM CDT
Civil Twilight 6:40 AM CDT 7:45 PM CDT
Nautical Twilight 6:05 AM CDT 8:20 PM CDT
Astronomical Twilight 5:29 AM CDT 8:56 PM CDT
Moon 9:34 PM CDT (9/23) 11:44 AM CDT (9/23)
Length of Visible Light 13h 05m
Length of Day
12h 06m
Waning Gibbous, 81% of the Moon is Illuminated
Sep 23
Waning Gibbous
Sep 26
Last Quarter
Oct 4
New
Oct 11
First Quarter
Oct 18
Full

Hourly Weather History & Observations

Time (CDT) Temp. Dew Point Humidity Pressure Visibility Wind Dir Wind Speed Gust Speed Precip Events Conditions
12:13 AM 64.4 °F 53.6 °F 68% 29.80 in 10.0 mi SSE 13.8 mph 19.6 mph N/A   Clear
12:33 AM 64.4 °F 53.6 °F 68% 29.81 in 10.0 mi SSE 15.0 mph 24.2 mph N/A   Clear
12:53 AM 64.4 °F 53.6 °F 68% 29.81 in 10.0 mi SSE 17.3 mph 23.0 mph N/A   Clear
1:14 AM 62.6 °F 53.6 °F 72% 29.81 in 10.0 mi SSE 16.1 mph 26.5 mph N/A   Clear
1:33 AM 62.6 °F 53.6 °F 72% 29.82 in 10.0 mi SSE 16.1 mph 20.7 mph N/A   Clear
1:53 AM 62.6 °F 53.6 °F 72% 29.82 in 10.0 mi SSE 15.0 mph - N/A   Clear
2:13 AM 62.6 °F 53.6 °F 72% 29.82 in 10.0 mi SSE 16.1 mph 21.9 mph N/A   Clear
2:34 AM 62.6 °F 53.6 °F 72% 29.82 in 10.0 mi SSE 16.1 mph 23.0 mph N/A   Clear
2:53 AM 62.6 °F 53.6 °F 72% 29.81 in 10.0 mi SSE 17.3 mph 21.9 mph N/A   Clear
3:13 AM 62.6 °F 53.6 °F 72% 29.81 in 10.0 mi SSE 15.0 mph 20.7 mph N/A   Clear
3:33 AM 62.6 °F 53.6 °F 72% 29.81 in 10.0 mi SSE 17.3 mph 24.2 mph N/A   Clear
3:53 AM 60.8 °F 53.6 °F 77% 29.80 in 10.0 mi SSE 16.1 mph 20.7 mph N/A   Clear
4:14 AM 60.8 °F 53.6 °F 77% 29.81 in 10.0 mi SSE 13.8 mph 25.3 mph N/A   Clear
4:33 AM 60.8 °F 51.8 °F 72% 29.82 in 10.0 mi SSE 15.0 mph 19.6 mph N/A   Clear
4:53 AM 60.8 °F 51.8 °F 72% 29.82 in 10.0 mi SSE 18.4 mph - N/A   Clear
5:14 AM 60.8 °F 51.8 °F 72% 29.82 in 10.0 mi SSE 16.1 mph 21.9 mph N/A   Clear
5:33 AM 60.8 °F 51.8 °F 72% 29.82 in 10.0 mi SSE 18.4 mph 24.2 mph N/A   Clear
5:53 AM 60.8 °F 50.0 °F 68% 29.82 in 10.0 mi SSE 17.3 mph 27.6 mph N/A   Clear
6:13 AM 59.0 °F 50.0 °F 72% 29.82 in 10.0 mi SSE 16.1 mph 25.3 mph N/A   Clear
6:33 AM 57.2 °F 50.0 °F 77% 29.82 in 10.0 mi SE 11.5 mph - N/A   Clear
6:54 AM 55.4 °F 50.0 °F 82% 29.83 in 10.0 mi SE 11.5 mph - N/A   Clear
7:13 AM 55.4 °F 50.0 °F 82% 29.83 in 10.0 mi SE 11.5 mph - N/A   Clear
7:33 AM 55.4 °F 50.0 °F 82% 29.83 in 10.0 mi SE 12.7 mph - N/A   Clear
7:53 AM 55.4 °F 50.0 °F 82% 29.84 in 10.0 mi SE 15.0 mph - N/A   Clear
8:13 AM 57.2 °F 50.0 °F 77% 29.83 in 10.0 mi SE 15.0 mph 18.4 mph N/A   Clear
8:34 AM 57.2 °F 50.0 °F 77% 29.83 in 10.0 mi SSE 16.1 mph 20.7 mph N/A   Clear
8:53 AM 59.0 °F 50.0 °F 72% 29.83 in 10.0 mi SSE 17.3 mph 24.2 mph N/A   Clear
9:13 AM 60.8 °F 50.0 °F 68% 29.84 in 10.0 mi SSE 17.3 mph - N/A   Clear
9:33 AM 60.8 °F 50.0 °F 68% 29.84 in 10.0 mi SSE 16.1 mph 20.7 mph N/A   Clear
9:53 AM 62.6 °F 51.8 °F 68% 29.83 in 10.0 mi SSE 18.4 mph - N/A   Clear
10:13 AM 62.6 °F 51.8 °F 68% 29.83 in 10.0 mi SE 16.1 mph - N/A   Clear
10:33 AM 64.4 °F 51.8 °F 64% 29.83 in 10.0 mi SE 18.4 mph 26.5 mph N/A   Clear
10:53 AM 66.2 °F 51.8 °F 60% 29.82 in 10.0 mi SE 19.6 mph 27.6 mph N/A   Clear
11:14 AM 66.2 °F 51.8 °F 60% 29.83 in 10.0 mi SSE 19.6 mph 27.6 mph N/A   Clear
11:33 AM 68.0 °F 51.8 °F 56% 29.83 in 10.0 mi SSE 17.3 mph - N/A   Clear
11:53 AM 69.8 °F 51.8 °F 53% 29.83 in 10.0 mi SSE 18.4 mph 27.6 mph N/A   Clear
12:13 PM 69.8 °F 51.8 °F 53% 29.83 in 10.0 mi SSE 18.4 mph 28.8 mph N/A   Clear
12:33 PM 71.6 °F 51.8 °F 50% 29.83 in 10.0 mi SSE 18.4 mph 27.6 mph N/A   Clear
12:54 PM 71.6 °F 51.8 °F 50% 29.82 in 10.0 mi SSE 17.3 mph 31.1 mph N/A   Clear
1:13 PM 71.6 °F 51.8 °F 50% 29.82 in 10.0 mi SE 23.0 mph 31.1 mph N/A   Clear
1:33 PM 73.4 °F 51.8 °F 47% 29.82 in 10.0 mi SE 21.9 mph 27.6 mph N/A   Clear
1:53 PM 73.4 °F 51.8 °F 47% 29.82 in 10.0 mi SE 19.6 mph 28.8 mph N/A   Clear
2:13 PM 73.4 °F 51.8 °F 47% 29.81 in 10.0 mi SE 18.4 mph 26.5 mph N/A   Clear
2:33 PM 73.4 °F 51.8 °F 47% 29.81 in 10.0 mi SE 21.9 mph 26.5 mph N/A   Clear
2:53 PM 73.4 °F 51.8 °F 47% 29.80 in 10.0 mi SE 18.4 mph 25.3 mph N/A   Clear
3:13 PM 73.4 °F 50.0 °F 44% 29.80 in 10.0 mi SE 23.0 mph 28.8 mph N/A   Clear
3:34 PM 75.2 °F 50.0 °F 41% 29.80 in 10.0 mi SSE 20.7 mph 28.8 mph N/A   Clear
3:53 PM 73.4 °F 48.2 °F 41% 29.80 in 10.0 mi SSE 21.9 mph 29.9 mph N/A   Clear
4:13 PM 73.4 °F 51.8 °F 47% 29.80 in 10.0 mi SE 16.1 mph 23.0 mph N/A   Clear
4:33 PM 73.4 °F 48.2 °F 41% 29.80 in 10.0 mi SE 19.6 mph 26.5 mph N/A   Clear
4:53 PM 73.4 °F 51.8 °F 47% 29.81 in 10.0 mi SE 15.0 mph 20.7 mph N/A   Clear
5:14 PM 73.4 °F 50.0 °F 44% 29.81 in 10.0 mi SE 20.7 mph 26.5 mph N/A   Clear
5:33 PM 73.4 °F 50.0 °F 44% 29.82 in 10.0 mi SE 20.7 mph 26.5 mph N/A   Clear
5:53 PM 73.4 °F 50.0 °F 44% 29.82 in 10.0 mi SE 18.4 mph 25.3 mph N/A   Clear
6:13 PM 71.6 °F 51.8 °F 50% 29.82 in 10.0 mi SSE 16.1 mph 21.9 mph N/A   Clear
6:33 PM 69.8 °F 50.0 °F 49% 29.82 in 10.0 mi SE 16.1 mph 20.7 mph N/A   Clear
6:54 PM 68.0 °F 51.8 °F 56% 29.83 in 10.0 mi SE 10.4 mph - N/A   Clear
7:13 PM 66.2 °F 51.8 °F 60% 29.83 in 10.0 mi ESE 8.1 mph - N/A   Clear
7:33 PM 64.4 °F 51.8 °F 64% 29.83 in 10.0 mi ESE 6.9 mph - N/A   Clear
7:53 PM 62.6 °F 51.8 °F 68% 29.84 in 10.0 mi ESE 8.1 mph - N/A   Clear
8:13 PM 62.6 °F 51.8 °F 68% 29.84 in 10.0 mi ESE 11.5 mph - N/A   Clear
8:34 PM 62.6 °F 51.8 °F 68% 29.85 in 10.0 mi ESE 9.2 mph - N/A   Clear
8:53 PM 62.6 °F 51.8 °F 68% 29.85 in 10.0 mi ESE 10.4 mph - N/A   Clear
9:13 PM 60.8 °F 51.8 °F 72% 29.86 in 10.0 mi ESE 9.2 mph - N/A   Clear
9:33 PM 60.8 °F 51.8 °F 72% 29.86 in 10.0 mi ESE 8.1 mph - N/A   Clear
9:53 PM 59.0 °F 51.8 °F 77% 29.87 in 10.0 mi ESE 8.1 mph - N/A   Clear
10:13 PM 57.2 °F 51.8 °F 82% 29.87 in 10.0 mi ESE 6.9 mph - N/A   Clear
10:33 PM 57.2 °F 51.8 °F 82% 29.87 in 10.0 mi ESE 8.1 mph - N/A   Clear
10:53 PM 57.2 °F 51.8 °F 82% 29.88 in 10.0 mi ESE 8.1 mph - N/A   Clear
11:14 PM 57.2 °F 51.8 °F 82% 29.88 in 10.0 mi ESE 6.9 mph - N/A   Clear
11:33 PM 55.4 °F 51.8 °F 88% 29.89 in 10.0 mi SE 6.9 mph - N/A   Clear
11:53 PM 55.4 °F 51.8 °F 88% 29.89 in 10.0 mi SE 8.1 mph - N/A   Clear